Wind_Speed
4 3 3 4 3 3 3 3 2 1 1 1 1 1 1 1 1 1 1 2 2 2 3 2 1 1 2 2 2 2 2 3 3 3 3 3 3 4 4 5 5 5 6 7 7 7 7 7 7
5 5 5 5 4 3 3 3 3 2 2 1 1 0 0 1 1 1 1 1 1 2 2 2 2 2 2 2 2 2 2 3 3 4 4 4 4 4 5 6 6 6 6 7 6 6 7 7 8
6 6 5 5 5 4 3 3 3 2 2 2 2 2 1 1 1 1 1 1 1 1 2 2 2 2 2 3 3 3 3 3 4 4 5 5 5 6 7 7 6 6 6 6 6 6 7 7 8
6 6 6 6 5 4 4 4 4 4 4 4 4 3 3 2 2 2 2 2 2 2 3 3 3 3 3 3 3 4 4 4 5 5 5 6 6 7 7 6 4 4 5 5 6 6 7 8 8
7 7 6 6 5 4 5 5 4 4 4 4 4 4 3 3 3 3 3 3 4 4 4 4 3 3 3 3 4 4 4 5 5 6 6 5 5 6 6 5 4 3 4 5 6 7 8 8 9
7 7 7 6 6 5 5 5 5 5 5 5 5 5 4 4 5 4 4 4 5 5 5 4 4 4 4 5 5 5 5 6 6 7 6 6 6 6 6 6 5 5 5 5 6 6 8 9 10
8 8 7 7 6 6 6 7 7 6 5 5 4 4 5 5 5 5 5 5 5 5 5 5 5 5 5 5 5 5 6 6 7 7 7 7 7 7 6 6 6 6 6 6 7 7 8 9 10
9 8 8 7 7 6 6 7 7 6 6 5 5 5 5 5 6 5 5 6 6 5 6 6 6 6 6 6 6 7 7 7 7 7 7 8 8 7 7 7 7 7 7 8 8 9 9 9 9
9 9 8 8 9 8 8 8 7 7 7 6 6 6 6 6 6 7 6 7 7 7 7 8 7 7 7 7 7 8 8 8 8 8 8 8 8 8 8 9 9 9 9 9 9 10 10 10 10
10 9 9 9 10 10 10 9 9 9 8 7 7 7 7 7 7 8 8 8 8 8 8 8 8 8 8 7 8 9 9 9 9 9 9 9 9 10 10 10 10 9 9 10 10 11 11 11 11
10 9 9 10 10 10 10 10 10 10 9 9 8 8 8 9 9 9 9 9 9 9 8 9 8 8 8 8 8 9 9 10 10 10 10 10 10 10 10 10 10 10 10 10 10 11 11 10 10
9 9 9 10 10 10 10 10 11 10 10 10 9 9 9 10 10 9 10 10 10 10 9 9 9 8 8 8 9 9 10 11 11 11 10 10 10 11 11 10 10 10 10 10 10 10 10 11 11
9 9 9 10 10 10 10 11 11 11 11 11 11 11 10 10 10 10 10 10 10 10 10 10 10 9 9 10 10 10 10 11 11 11 10 11 11 11 11 11 11 10 10 10 10 10 10 11 11
10 10 10 10 10 10 11 12 12 11 11 12 12 12 11 11 10 10 10 10 10 10 10 11 11 11 11 11 11 11 11 11 11 11 11 11 11 11 12 12 12 12 11 11 11 11 11 11 11
11 10 10 10 11 11 11 11 12 12 12 13 13 12 13 12 12 11 11 11 11 11 11 11 11 11 11 11 11 11 11 11 11 11 11 12 12 12 12 12 12 12 12 12 12 11 11 11 11
12 11 11 10 11 11 12 11 12 12 13 13 13 13 14 14 13 13 13 13 12 12 12 12 12 12 12 12 11 12 12 12 12 12 12 12 12 12 13 13 12 13 13 12 11 11 11 11 10
12 11 11 11 11 12 13 12 12 12 13 13 14 14 14 14 14 14 13 13 13 13 13 13 13 13 13 13 12 12 12 13 13 13 13 13 13 12 12 12 12 12 12 11 11 11 11 11 11
12 12 12 12 12 13 14 13 13 13 14 14 14 14 14 14 14 13 13 14 14 14 14 14 14 14 14 14 13 13 13 14 14 14 14 14 13 13 13 13 12 12 12 11 11 11 11 12 12
14 13 13 13 14 15 14 14 14 14 14 14 15 15 15 14 14 14 14 14 14 14 15 15 15 15 14 14 14 14 14 15 15 14 14 14 14 14 13 13 13 12 12 12 12 12 12 12 13
15 14 14 14 15 16 15 15 15 15 15 15 15 15 15 15 15 14 14 14 14 14 15 14 14 14 14 15 15 15 15 16 15 15 15 15 15 15 14 14 13 13 13 13 13 13 13 13 13
15 15 16 16 16 17 17 16 16 15 16 16 15 15 15 15 15 15 14 15 16 15 15 15 15 15 16 16 16 16 16 16 16 16 16 16 16 16 15 15 15 14 14 14 14 14 15 15 15
16 16 17 17 18 18 18 18 16 17 17 17 16 15 15 15 15 15 16 16 16 16 16 15 16 16 17 17 17 17 17 17 17 17 17 17 16 16 16 16 16 15 15 15 16 16 16 16 16
17 17 18 18 19 20 19 20 18 19 18 17 17 16 16 16 16 16 16 17 17 17 16 16 16 17 18 18 18 18 18 18 18 18 18 18 17 17 16 17 17 16 16 17 17 16 16 17 17
17 18 19 19 20 21 19 21 20 19 19 18 18 18 17 17 17 17 17 17 18 18 17 17 18 18 18 19 19 19 19 19 19 19 19 18 18 17 17 17 17 17 17 17 17 17 18 18 18
18 18 19 20 21 21 20 22 21 19 19 19 19 18 18 18 18 18 17 18 18 18 18 18 19 18 19 19 20 20 20 20 20 20 19 19 19 18 18 18 18 18 18 18 18 18 19 19 19
18 18 19 21 22 22 22 23 21 19 19 19 19 19 19 18 18 18 18 18 19 19 19 20 20 19 20 20 21 21 20 20 20 20 20 20 19 20 20 20 20 20 19 19 19 19 20 20 20
18 18 18 20 22 22 23 22 22 20 19 19 20 20 19 19 19 20 19 19 20 20 20 21 20 21 21 21 21 21 21 21 21 21 20 20 20 21 22 21 21 21 21 21 20 20 21 21 21
18 18 19 21 22 23 23 22 21 20 20 20 20 20 20 20 20 20 20 21 22 21 21 21 21 21 22 22 22 22 22 21 22 21 21 21 21 21 22 22 22 22 22 22 22 22 21 21 22
19 20 20 21 22 23 24 22 21 20 20 21 21 20 20 20 20 21 22 22 22 22 22 23 23 23 23 23 23 24 23 23 23 23 22 22 22 22 22 22 22 22 22 22 22 23 23 23 23
20 20 21 21 23 23 25 24 22 21 21 21 21 21 20 20 21 22 23 23 23 23 23 24 24 24 24 24 24 24 24 24 24 24 24 24 24 23 23 23 23 23 23 23 23 23 23 23 24
Wind_Direction
233 238 233 230 226 229 217 209 214 211 201 176 145 112 73 49 28 32 34 22 21 20 33 45 44 16 24 21 17 12 3 358 351 338 331 319 312 313 309 300 293 285 278 270 264 262 263 263 265
233 236 233 229 228 236 225 221 231 233 232 202 185 147 108 20 11 10 21 8 15 3 17 25 10 354 358 1 359 351 344 346 345 339 333 325 314 314 312 302 292 281 276 271 269 267 265 261 263
244 243 239 240 235 241 231 228 237 246 245 232 234 246 263 308 338 322 318 326 341 328 337 341 345 344 353 351 343 329 323 325 327 327 326 320 318 323 320 310 293 277 266 264 269 270 270 267 270
248 248 243 243 243 242 237 237 242 249 252 249 250 255 259 276 289 290 288 288 289 297 299 303 311 317 315 316 325 323 316 315 311 314 316 313 311 314 316 318 302 278 263 264 268 270 273 270 273
250 251 248 244 238 233 235 241 245 250 251 250 253 262 266 267 271 277 278 275 273 279 288 288 288 294 299 300 309 321 326 323 317 313 316 316 314 318 318 320 311 281 266 268 270 273 276 275 275
256 254 252 245 236 238 236 238 240 247 246 249 255 261 262 264 268 270 273 273 271 272 280 280 282 287 291 296 312 316 320 321 317 314 311 311 307 311 313 310 304 294 284 280 277 281 282 280 279
260 254 250 246 241 244 251 247 245 249 253 254 256 260 260 263 264 265 269 274 273 271 275 280 281 287 293 298 302 310 315 315 316 312 311 307 306 305 305 302 298 293 289 286 282 285 286 287 285
258 259 253 250 247 252 255 254 253 256 259 262 258 256 257 261 266 268 268 271 274 278 280 281 285 291 292 289 290 294 301 305 307 306 305 302 298 296 295 294 294 293 288 284 283 283 286 287 287
255 256 256 254 251 254 258 259 259 261 264 265 263 260 257 260 262 264 267 270 273 277 277 277 279 282 282 280 282 287 294 298 301 300 300 297 293 290 288 291 292 290 287 284 283 285 287 286 286
254 257 255 255 255 258 260 263 262 264 267 268 267 267 264 261 261 262 264 267 272 276 279 279 282 283 281 279 283 287 291 293 296 296 296 293 291 289 287 288 287 285 284 284 285 286 286 286 286
254 257 255 254 256 259 259 261 262 266 270 270 268 265 264 264 264 263 263 265 271 273 276 280 283 282 278 279 283 287 290 291 292 292 289 287 285 286 287 287 285 284 283 284 284 284 284 284 286
254 256 255 253 253 254 256 260 262 268 274 272 268 267 265 264 265 264 265 267 268 268 272 276 279 280 279 280 282 285 288 290 291 291 289 286 284 284 285 283 283 283 285 285 286 284 282 282 284
254 255 255 255 255 254 255 257 261 266 270 270 270 269 264 264 264 262 262 265 265 266 270 273 276 281 283 285 286 286 288 288 288 289 290 290 286 284 283 283 280 280 281 283 282 281 281 281 281
255 257 258 260 259 258 257 260 263 266 267 266 267 267 267 265 265 263 262 261 261 263 269 274 275 279 283 284 287 286 286 285 286 289 291 290 286 282 282 282 281 280 279 277 277 278 277 278 276
255 257 261 263 263 262 262 263 264 265 265 264 265 267 268 266 262 262 264 264 263 266 271 276 276 280 283 284 284 286 287 286 285 288 289 289 287 284 284 284 284 284 283 282 281 278 277 277 276
257 257 261 265 265 265 264 265 265 264 264 264 264 265 267 267 267 265 265 266 265 265 269 273 275 277 280 282 281 284 286 286 286 287 289 288 287 285 284 285 284 284 283 284 282 280 279 280 283
258 261 264 265 265 265 266 264 262 264 265 266 266 267 268 267 268 267 267 265 265 266 268 269 272 275 277 279 280 282 282 284 284 286 287 288 287 285 286 286 285 284 284 282 281 280 281 282 282
262 263 264 264 264 263 264 265 265 265 266 267 268 269 269 268 269 269 269 267 266 266 267 268 270 274 276 278 281 282 281 282 283 283 284 284 283 282 282 283 283 283 282 282 282 281 280 279 278
263 264 262 263 263 264 266 266 267 266 265 266 267 268 269 269 269 270 269 269 269 268 267 268 270 272 274 278 280 282 283 283 283 282 282 282 281 280 279 279 281 281 280 279 281 281 280 280 280
264 265 265 263 262 264 267 267 269 267 266 268 269 270 271 271 269 269 269 268 267 269 270 270 271 272 275 277 279 280 283 283 282 281 281 281 280 279 277 277 277 277 278 278 278 278 280 281 281
265 267 267 266 264 266 268 267 268 267 266 267 269 271 271 272 270 269 268 266 266 266 269 270 271 272 274 275 277 279 281 282 281 281 281 280 279 278 277 276 275 275 276 277 277 278 279 280 281
267 268 267 266 266 267 269 270 267 268 268 269 271 271 273 274 272 271 268 267 265 266 268 269 270 271 272 273 275 277 280 280 281 282 281 280 278 277 277 275 275 276 277 277 276 277 279 280 280
269 269 268 268 267 268 269 271 268 269 269 271 272 273 274 272 272 271 268 267 265 264 266 267 270 270 272 274 276 277 279 278 278 279 280 278 277 276 275 275 274 275 276 278 278 277 278 279 279
268 268 268 267 267 268 270 272 272 272 274 272 272 274 272 271 272 269 266 266 265 263 263 267 269 270 271 274 275 276 277 277 278 279 278 276 275 275 275 275 274 275 276 278 279 278 278 278 278
267 268 269 268 268 270 271 271 275 276 275 274 274 273 272 271 270 267 265 264 265 262 263 269 271 270 271 273 275 276 276 277 278 279 278 275 273 273 273 274 273 274 277 278 278 277 276 276 276
270 269 269 272 273 274 273 273 277 277 276 276 276 276 274 274 271 267 264 263 263 262 264 268 271 269 270 272 274 276 276 276 276 277 278 276 273 272 272 272 274 275 277 276 277 277 276 275 276
272 271 272 273 274 273 273 275 277 279 278 277 277 275 275 274 271 266 264 264 263 263 265 267 268 269 270 272 274 276 276 276 276 276 277 277 275 273 271 272 274 274 275 275 275 276 276 276 276
271 272 272 273 275 275 275 276 279 279 280 279 278 279 278 275 273 268 268 267 264 265 268 268 267 267 270 272 274 275 276 277 278 277 277 276 277 276 274 273 272 272 272 274 274 275 277 277 277
272 271 271 273 275 276 276 276 279 280 281 282 283 284 282 278 273 270 268 268 266 268 267 268 268 270 270 271 272 273 274 275 277 278 277 276 276 276 275 275 273 273 273 274 275 276 278 278 278
273 272 271 273 275 275 276 276 278 280 280 281 282 281 280 277 273 270 269 268 269 271 269 269 270 271 271 271 271 272 272 273 274 274 275 275 277 276 275 273 272 273 273 274 275 275 277 278 278
Height
5861 5862 5863 5864 5866 5865 5865 5866 5866 5867 5867 5867 5867 5868 5868 5869 5870 5872 5870 5868 5868 5867 5867 5866 5866 5866 5867 5867 5867 5867 5867 5867 5866 5866 5866 5866 5866 5865 5865 5865 5865 5865 5865 5865 5866 5866 5867 5867 5868
5861 5862 5863 5864 5864 5865 5866 5866 5866 5867 5867 5867 5868 5868 5868 5868 5869 5869 5869 5868 5868 5868 5868 5867 5867 5867 5867 5867 5867 5867 5867 5866 5866 5866 5866 5865 5865 5864 5864 5863 5862 5861 5862 5863 5864 5864 5865 5866 5866
5861 5862 5864 5864 5864 5865 5866 5866 5866 5867 5867 5868 5868 5868 5869 5869 5869 5869 5869 5868 5868 5868 5868 5868 5868 5867 5867 5867 5867 5867 5866 5866 5866 5865 5865 5865 5864 5863 5862 5860 5858 5858 5859 5861 5862 5863 5864 5864 5864
5861 5862 5863 5864 5864 5865 5865 5865 5866 5866 5867 5867 5868 5868 5868 5868 5868 5868 5868 5868 5868 5868 5868 5868 5868 5867 5867 5867 5866 5866 5866 5865 5865 5865 5865 5864 5864 5863 5862 5859 5857 5856 5858 5860 5861 5862 5862 5863 5863
5860 5861 5862 5862 5863 5864 5864 5864 5865 5866 5866 5866 5867 5867 5867 5868 5868 5868 5868 5868 5868 5868 5867 5867 5867 5867 5866 5866 5866 5865 5865 5865 5864 5864 5864 5863 5863 5862 5861 5860 5858 5857 5858 5859 5860 5860 5861 5861 5861
5860 5861 5862 5862 5862 5863 5864 5864 5865 5865 5865 5865 5866 5866 5866 5867 5867 5867 5867 5867 5867 5867 5867 5866 5866 5866 5866 5865 5865 5865 5864 5864 5864 5863 5863 5862 5862 5861 5860 5860 5859 5859 5859 5859 5859 5859 5859 5860 5860
5859 5860 5860 5861 5862 5862 5863 5863 5864 5864 5864 5865 5865 5865 5865 5866 5866 5866 5866 5866 5866 5866 5866 5865 5865 5865 5865 5864 5864 5864 5863 5863 5862 5862 5862 5861 5861 5860 5860 5859 5859 5858 5858 5858 5858 5858 5858 5858 5858
5858 5859 5859 5860 5861 5862 5862 5862 5863 5863 5863 5864 5864 5865 5864 5865 5864 5865 5865 5865 5865 5865 5864 5864 5864 5864 5863 5863 5863 5863 5862 5862 5861 5861 5860 5860 5859 5859 5858 5858 5858 5857 5857 5857 5856 5856 5856 5856 5855
5857 5859 5858 5859 5860 5860 5861 5861 5862 5862 5862 5863 5863 5863 5864 5863 5863 5863 5863 5863 5863 5863 5863 5863 5863 5862 5862 5862 5861 5861 5861 5860 5860 5859 5859 5858 5858 5857 5857 5856 5856 5856 5855 5855 5855 5854 5854 5854 5853
5855 5856 5857 5858 5859 5859 5859 5860 5860 5861 5861 5861 5862 5862 5862 5862 5862 5862 5862 5862 5862 5862 5861 5861 5861 5861 5860 5860 5859 5859 5859 5859 5858 5858 5857 5857 5856 5856 5855 5855 5854 5854 5854 5853 5853 5852 5852 5851 5851
5853 5854 5855 5856 5857 5857 5857 5858 5858 5859 5859 5860 5860 5860 5860 5860 5860 5861 5860 5860 5860 5860 5860 5859 5859 5859 5859 5858 5858 5857 5857 5857 5856 5856 5855 5855 5854 5854 5853 5852 5852 5852 5852 5851 5851 5850 5849 5849 5849
5852 5852 5853 5854 5855 5855 5856 5856 5856 5857 5858 5858 5858 5858 5858 5858 5858 5858 5859 5858 5858 5858 5858 5857 5857 5857 5857 5856 5856 5856 5855 5855 5854 5854 5853 5853 5852 5851 5851 5850 5850 5849 5849 5849 5848 5848 5847 5847 5846
5850 5850 5851 5852 5852 5853 5854 5854 5854 5855 5855 5855 5855 5856 5856 5856 5856 5856 5856 5856 5856 5856 5856 5855 5855 5855 5855 5855 5854 5853 5853 5852 5852 5851 5850 5850 5850 5849 5848 5848 5847 5847 5846 5846 5846 5846 5845 5845 5844
5848 5849 5849 5850 5850 5851 5852 5852 5853 5853 5853 5853 5853 5853 5853 5854 5854 5854 5854 5854 5854 5854 5853 5853 5853 5852 5852 5852 5852 5851 5851 5850 5850 5849 5848 5848 5847 5847 5846 5846 5845 5844 5844 5843 5843 5843 5842 5842 5842
5846 5847 5848 5848 5848 5849 5850 5850 5850 5850 5850 5850 5850 5850 5850 5851 5851 5851 5851 5851 5851 5851 5850 5850 5850 5850 5849 5849 5849 5849 5848 5848 5847 5847 5846 5845 5845 5844 5843 5843 5842 5842 5841 5841 5840 5840 5840 5839 5839
5844 5845 5846 5846 5846 5846 5848 5848 5848 5847 5847 5847 5847 5847 5847 5848 5848 5848 5848 5848 5848 5848 5847 5847 5847 5847 5847 5846 5846 5846 5845 5845 5845 5844 5843 5843 5842 5841 5841 5840 5840 5839 5838 5838 5838 5838 5837 5837 5836
5842 5843 5843 5844 5843 5843 5844 5844 5845 5844 5844 5844 5844 5844 5844 5844 5845 5844 5844 5844 5844 5844 5844 5844 5844 5844 5844 5843 5843 5843 5842 5842 5841 5841 5840 5840 5839 5838 5838 5837 5837 5836 5836 5835 5835 5835 5835 5834 5834
5840 5840 5840 5841 5841 5840 5840 5841 5842 5841 5841 5841 5841 5841 5841 5841 5841 5841 5841 5841 5841 5841 5841 5840 5841 5840 5840 5840 5840 5839 5839 5839 5838 5838 5837 5837 5836 5835 5835 5834 5834 5833 5833 5832 5832 5832 5832 5831 5831
5836 5836 5837 5838 5838 5837 5837 5838 5838 5838 5838 5838 5838 5838 5837 5838 5838 5837 5837 5837 5837 5837 5837 5837 5837 5837 5836 5836 5836 5836 5836 5835 5835 5834 5834 5833 5833 5832 5831 5831 5831 5830 5830 5829 5829 5828 5828 5828 5827
5832 5833 5834 5835 5834 5834 5834 5834 5834 5834 5835 5835 5834 5834 5834 5833 5833 5833 5833 5833 5833 5833 5833 5833 5833 5833 5833 5833 5833 5832 5832 5831 5831 5831 5830 5829 5829 5828 5828 5827 5827 5827 5826 5826 5825 5825 5825 5824 5824
5829 5829 5830 5830 5830 5830 5830 5831 5831 5831 5831 5831 5831 5830 5830 5829 5829 5829 5829 5829 5829 5829 5829 5830 5830 5830 5829 5829 5828 5828 5828 5827 5827 5826 5826 5825 5825 5824 5824 5823 5823 5823 5822 5822 5822 5821 5821 5820 5820
5825 5826 5825 5825 5826 5826 5826 5826 5828 5827 5827 5827 5827 5826 5826 5825 5825 5824 5824 5824 5824 5825 5825 5825 5825 5825 5825 5824 5824 5824 5824 5823 5823 5822 5821 5821 5821 5820 5820 5819 5819 5819 5818 5818 5817 5817 5816 5816 5816
5821 5821 5821 5821 5821 5821 5821 5821 5823 5822 5822 5823 5823 5822 5821 5821 5820 5819 5819 5819 5820 5820 5820 5820 5820 5820 5820 5820 5820 5819 5819 5818 5818 5817 5817 5816 5816 5815 5815 5815 5814 5814 5814 5813 5813 5812 5812 5811 5811
5816 5817 5816 5816 5816 5816 5818 5816 5817 5818 5818 5818 5818 5817 5816 5816 5815 5814 5814 5815 5815 5815 5815 5815 5815 5815 5815 5815 5815 5814 5814 5813 5812 5812 5812 5811 5811 5810 5810 5810 5810 5809 5809 5808 5808 5807 5807 5806 5806
5812 5812 5812 5811 5811 5812 5813 5811 5813 5814 5813 5813 5812 5812 5811 5810 5809 5809 5809 5810 5810 5810 5810 5811 5811 5811 5810 5810 5810 5809 5808 5808 5807 5807 5806 5806 5806 5805 5805 5805 5804 5804 5804 5803 5803 5802 5801 5801 5800
5808 5808 5808 5807 5807 5807 5807 5806 5809 5809 5808 5807 5807 5806 5805 5805 5805 5804 5804 5805 5805 5805 5805 5806 5805 5805 5805 5805 5804 5803 5803 5802 5802 5801 5801 5800 5800 5800 5799 5799 5799 5799 5798 5797 5797 5796 5796 5795 5795
5803 5803 5803 5803 5801 5801 5801 5802 5803 5803 5802 5802 5801 5801 5800 5800 5800 5799 5799 5799 5799 5800 5800 5800 5800 5800 5800 5799 5799 5798 5797 5797 5796 5795 5795 5794 5794 5794 5793 5793 5793 5792 5792 5792 5791 5791 5790 5790 5789
5799 5799 5798 5797 5796 5795 5796 5796 5797 5797 5797 5797 5796 5795 5795 5794 5794 5794 5794 5794 5794 5794 5794 5794 5794 5794 5794 5793 5793 5792 5791 5791 5790 5789 5789 5788 5788 5787 5787 5786 5786 5786 5786 5786 5785 5785 5784 5784 5783
5794 5794 5792 5792 5791 5790 5790 5793 5792 5792 5791 5791 5790 5789 5789 5788 5788 5788 5788 5787 5787 5788 5788 5788 5788 5787 5787 5787 5786 5785 5785 5784 5784 5783 5782 5782 5782 5781 5781 5780 5780 5780 5780 5779 5779 5779 5778 5778 5777
5788 5788 5787 5787 5786 5785 5784 5788 5787 5786 5785 5785 5784 5784 5783 5782 5782 5782 5782 5781 5781 5781 5781 5781 5780 5780 5780 5780 5779 5778 5778 5777 5777 5776 5776 5775 5775 5774 5774 5773 5773 5773 5773 5773 5773 5773 5772 5772 5771